Theta_e
310 310 310 310 310 310 311 311 311 311 311 312 312 312 312 312 312 312 313 313 312 313 315 316 315 315 315 316 317 317 320 320 319 319 319 317 318 315 316 316 315 317 317 318 317
310 310 310 311 311 311 311 311 311 311 311 311 312 312 312 312 312 313 313 313 312 311 314 315 315 315 317 317 317 319 320 319 318 318 318 317 317 318 316 317 317 316 317 317 317
311 311 312 312 312 312 312 312 312 312 312 312 312 312 312 312 313 312 314 313 313 311 314 315 314 315 317 317 318 319 319 319 316 315 314 316 316 316 317 318 318 318 317 317 317
312 312 312 312 312 311 311 311 311 311 311 311 311 312 312 312 315 312 314 313 313 313 313 314 314 316 317 318 317 318 317 317 317 315 315 316 316 316 316 317 317 317 316 316 316
311 311 310 310 310 311 311 312 313 313 313 313 312 310 309 311 313 314 313 313 312 312 313 314 315 316 317 317 316 317 318 317 316 315 315 315 316 317 316 316 316 316 315 314 315
311 312 313 314 315 316 317 317 318 318 318 319 318 316 312 309 312 314 313 312 312 312 313 314 315 314 315 315 316 315 315 315 315 314 315 315 316 315 315 315 314 314 314 314 313
316 316 316 315 314 313 313 313 314 314 314 314 314 315 315 317 315 312 312 313 312 312 313 313 313 314 314 315 313 313 315 315 315 313 314 313 315 315 315 314 313 314 314 314 314
315 315 315 315 315 315 315 314 314 313 313 311 310 312 313 316 317 315 310 309 311 312 313 313 313 313 313 312 312 313 312 315 315 311 312 314 315 316 315 312 313 314 314 314 314
318 319 319 320 320 320 320 320 320 320 318 315 310 310 312 313 312 312 310 309 311 311 312 312 312 312 312 314 314 314 315 315 314 313 312 314 315 315 313 312 313 313 313 313 313
320 321 322 323 323 323 324 323 323 320 315 312 310 309 311 311 312 312 311 310 310 311 311 311 311 313 312 314 316 317 315 314 313 314 312 312 313 313 312 312 312 312 313 313 313
324 324 324 324 323 323 324 324 322 319 319 320 318 314 316 313 312 311 311 310 310 311 313 311 313 314 315 314 315 313 313 313 314 314 312 313 314 313 312 312 312 313 313 313 313
323 323 323 322 322 322 323 323 322 319 315 322 322 321 318 313 313 312 310 310 311 313 310 311 313 314 313 311 311 312 313 314 314 313 310 313 313 313 313 313 313 313 313 313 312
322 322 324 323 323 323 323 323 322 320 315 318 316 315 315 314 312 313 311 310 311 311 311 314 315 311 311 312 312 313 313 314 314 313 311 311 314 314 314 312 313 312 312 311 310
322 322 323 322 321 323 322 322 321 320 321 319 311 309 307 309 309 308 309 309 310 312 311 312 311 310 310 311 312 314 314 312 311 311 313 311 315 317 316 316 315 312 310 310 310
322 322 321 321 322 321 321 321 319 318 328 314 308 309 308 308 307 308 308 309 311 311 310 314 310 310 311 312 310 313 309 310 310 311 311 313 313 319 314 314 314 311 310 308 307
321 320 320 319 320 320 320 320 319 323 328 318 308 309 309 308 307 308 308 308 307 309 308 310 306 308 311 308 309 308 310 311 309 311 316 317 315 316 315 314 313 310 307 306 304
319 318 318 316 317 319 320 319 322 326 321 318 312 309 310 309 308 308 310 311 316 318 317 316 316 308 307 310 307 309 311 316 321 319 321 311 315 315 315 313 309 307 305 303 302
315 314 313 314 315 318 319 319 323 320 321 319 317 313 321 314 315 312 315 316 315 312 314 317 319 310 308 310 314 311 312 320 324 323 323 319 320 319 313 307 306 305 304 303 301
311 310 309 311 311 316 317 318 319 318 319 319 318 320 320 316 317 317 317 319 316 313 316 317 317 309 305 307 309 310 311 313 314 316 317 317 317 313 309 307 306 304 303 301 299
308 307 307 307 307 313 314 314 314 316 317 318 319 319 319 318 316 313 315 310 310 306 307 314 318 314 309 306 307 310 311 314 312 318 319 317 317 316 311 308 306 304 301 299 297
306 303 304 305 307 312 312 311 311 312 314 316 316 317 316 317 317 316 316 316 315 313 308 311 314 316 312 312 313 309 309 309 311 315 319 319 316 313 310 306 305 301 298 297 296
298 302 302 307 310 310 311 310 310 310 311 313 313 315 315 315 315 314 314 314 313 308 312 311 314 316 314 313 311 309 312 312 314 315 314 315 315 312 306 302 299 297 295 294 294
298 302 308 310 309 310 309 310 310 310 310 311 311 312 311 312 312 311 312 310 310 312 313 311 315 316 316 313 310 311 312 311 313 313 316 317 316 307 302 298 296 295 294 293 293
298 302 304 308 307 307 308 307 308 307 308 309 309 311 311 310 310 311 311 311 309 308 307 309 310 313 314 312 311 313 311 308 309 312 313 313 311 308 307 305 298 295 293 293 292
297 299 301 306 306 307 306 305 306 307 306 307 308 309 308 309 308 308 307 306 305 301 304 306 309 308 308 308 308 307 306 305 305 305 306 307 306 305 304 296 293 291 291 292 292
296 297 297 298 298 302 305 305 304 303 304 304 304 304 302 305 306 306 304 304 304 300 301 300 305 303 302 303 303 303 301 301 301 301 300 301 302 300 294 293 293 291 290 290 290
294 295 295 295 297 300 300 301 300 300 297 298 298 299 299 300 299 298 297 297 298 299 299 298 300 301 302 301 298 299 299 300 300 299 299 298 297 293 293 293 292 291 290 290 290
Wind_Speed
4 4 5 5 6 6 7 7 8 7 7 8 9 9 10 11 14 15 17 13 10 12 10 8 8 7 6 4 4 4 4 6 5 5 2 5 5 4 5 8 9 11 17 17 21
7 7 8 8 8 8 9 9 10 10 11 11 11 12 12 13 17 21 11 7 8 8 12 11 10 9 4 4 4 6 4 6 5 6 5 5 8 9 6 13 20 17 23 22 19
9 9 10 10 11 12 12 12 13 13 13 13 13 14 16 15 18 2 4 3 2 5 11 12 10 10 6 5 7 5 7 8 8 14 9 9 12 7 12 15 23 20 16 15 20
12 12 13 13 13 14 14 14 15 15 16 15 15 16 17 14 6 1 3 9 12 8 14 14 11 7 6 7 7 6 14 15 7 7 5 8 8 10 16 31 31 27 24 22 29
13 14 14 14 15 15 16 16 17 17 17 17 16 16 17 8 17 20 20 19 13 12 16 16 12 8 7 6 5 9 12 13 16 14 15 17 28 19 26 34 35 27 31 28 24
12 12 12 13 14 15 16 17 18 18 18 18 16 16 16 13 13 10 10 10 9 12 15 16 8 13 4 6 9 3 9 16 14 17 15 13 30 9 22 19 27 23 27 24 24
12 11 12 12 13 13 14 17 18 18 18 18 16 16 18 25 19 18 18 16 13 13 16 18 18 8 4 5 6 5 11 16 20 15 10 9 11 17 29 16 22 28 22 19 17
7 8 9 10 11 12 13 15 16 17 16 15 14 13 13 18 19 19 19 23 17 14 15 16 14 11 6 4 3 6 4 10 7 3 3 9 20 20 17 11 16 23 27 25 33
5 5 7 8 10 11 13 15 16 16 15 13 9 8 9 13 11 13 14 15 12 13 13 11 11 6 4 8 9 7 13 15 13 6 3 12 13 15 12 14 28 32 35 36 36
4 5 7 10 12 13 14 15 15 12 8 4 4 3 12 7 8 8 7 8 8 12 8 7 5 6 4 8 12 14 11 11 10 9 10 15 20 21 34 32 36 39 37 31 25
4 6 9 12 15 16 15 14 6 4 2 7 14 15 24 19 15 9 5 8 8 6 8 6 8 13 20 21 21 14 17 21 20 18 15 21 23 20 29 35 37 33 30 22 16
8 11 12 13 14 14 12 4 5 7 10 18 25 26 27 20 9 8 6 7 7 8 6 4 13 17 10 6 11 17 22 22 22 16 7 17 23 25 25 26 30 31 24 15 9
14 14 11 9 8 9 5 6 8 11 5 10 9 8 6 6 6 10 9 6 5 8 11 18 11 3 14 13 14 18 16 21 23 16 14 13 13 3 6 10 20 16 14 7 8
13 9 7 8 9 2 3 7 12 14 4 3 1 0 0 3 3 2 6 1 2 7 8 10 6 7 4 10 15 19 15 16 14 8 9 8 10 12 12 18 12 16 16 20 21
14 14 13 9 5 5 3 3 7 7 6 2 1 1 1 1 3 6 6 1 5 3 3 5 1 2 7 11 6 9 5 4 4 8 8 5 6 7 5 4 7 12 16 20 22
15 13 8 8 9 8 6 3 6 2 6 2 3 2 4 1 2 4 4 1 1 3 4 12 2 4 5 3 5 1 4 7 2 4 9 10 8 2 3 2 9 12 17 22 22
9 8 9 7 6 4 3 1 2 5 3 4 3 3 3 5 4 4 3 3 1 6 8 17 15 3 5 7 2 4 5 5 5 5 7 6 3 7 11 6 12 15 14 16 15
11 11 9 7 5 6 5 2 8 4 6 2 2 3 4 4 6 4 6 11 11 8 9 11 21 7 7 5 3 5 7 4 6 10 16 12 8 7 5 20 16 19 18 21 26
14 13 14 10 9 8 5 7 5 6 6 4 1 8 6 0 4 0 4 11 6 9 9 5 8 2 4 1 2 4 6 8 4 5 6 10 17 7 9 9 14 17 18 19 18
16 14 17 15 15 11 4 11 9 5 2 5 10 6 11 6 4 2 3 2 2 2 4 1 6 6 3 2 7 8 4 7 5 5 9 14 13 10 11 4 7 11 14 15 14
12 5 8 14 17 12 7 9 8 11 12 7 11 12 11 10 8 5 4 2 5 4 7 8 6 9 1 8 17 5 6 6 2 4 4 4 9 2 3 5 7 8 11 14 16
10 3 8 21 7 6 8 5 6 8 5 6 4 9 12 9 9 9 11 10 3 3 5 8 5 11 23 21 8 6 10 13 8 9 10 13 18 12 5 7 6 5 7 8 10
9 6 17 24 6 8 5 5 8 6 9 4 7 6 4 8 6 11 11 2 5 1 1 4 3 7 7 8 3 8 11 13 16 12 19 18 15 6 9 9 7 4 2 2 4
7 3 6 18 11 6 10 8 9 3 9 14 8 7 6 9 9 10 8 2 3 2 4 2 4 9 10 14 11 5 3 6 4 4 8 7 10 14 17 20 5 2 3 3 3
6 3 4 5 10 12 7 4 3 6 2 3 5 7 4 5 3 8 9 4 2 5 2 2 9 15 17 18 15 14 13 16 17 16 9 18 17 21 18 4 2 1 3 7 7
6 4 4 1 1 6 13 10 16 14 9 9 12 12 3 8 9 12 6 7 11 2 0 0 6 6 9 12 13 10 14 20 21 23 23 25 26 12 0 2 4 6 7 7 7
8 7 4 3 5 6 5 6 4 8 1 2 3 2 3 5 2 2 5 7 6 4 2 3 3 6 17 16 12 12 21 20 23 24 23 21 10 3 1 6 11 9 13 13 12
Wind_Direction
322 325 327 330 330 329 329 327 326 325 323 322 322 321 320 317 311 303 292 280 268 235 226 214 209 203 197 206 194 171 231 245 239 206 212 198 238 204 235 258 248 232 242 271 284
308 310 312 314 313 311 311 310 309 310 310 311 313 313 313 316 312 305 285 270 253 235 224 222 211 197 190 190 208 217 236 245 226 226 244 239 242 278 251 259 260 260 264 274 280
295 299 301 303 304 305 305 305 304 302 301 302 305 307 310 319 320 275 153 81 98 211 212 215 214 197 204 195 204 198 242 249 243 244 258 271 263 252 265 270 264 268 288 279 278
291 293 294 296 299 300 301 301 301 300 300 301 301 300 301 309 295 230 250 292 301 250 217 207 201 187 217 216 208 237 243 248 262 241 237 261 282 256 246 262 276 285 280 275 281
282 287 292 295 296 298 301 300 299 299 300 300 300 298 298 278 261 278 277 279 274 236 222 216 200 202 224 221 214 235 255 257 255 257 257 269 268 268 265 270 281 279 281 283 278
280 283 288 292 296 300 299 297 297 298 296 294 294 291 287 263 278 279 272 264 247 231 223 221 227 229 255 232 221 306 271 277 274 261 249 244 270 280 266 281 285 282 286 284 284
291 293 297 302 306 307 307 305 304 302 298 293 287 281 273 267 273 268 268 265 247 238 231 231 230 209 217 258 259 306 294 290 271 260 231 219 260 236 271 278 281 291 290 291 294
301 306 311 314 316 317 316 313 310 308 305 296 283 272 261 274 271 263 260 259 253 239 230 236 234 231 240 281 287 272 249 283 291 174 214 191 273 282 288 278 278 289 289 284 282
303 314 321 324 323 324 324 322 318 312 305 297 275 234 262 271 279 273 261 248 247 233 225 227 198 208 241 249 274 230 268 265 286 246 173 207 277 283 286 292 289 283 280 279 287
300 318 326 329 330 329 333 329 319 306 302 312 278 236 252 278 293 279 273 230 200 190 176 176 164 205 209 217 249 270 259 253 259 286 247 271 267 280 287 291 282 278 279 283 288
289 310 314 317 321 325 333 343 343 329 316 279 275 260 280 281 282 280 249 185 163 173 197 186 209 210 226 227 247 283 272 273 278 279 294 282 291 296 289 280 276 286 279 283 288
279 285 294 314 327 333 337 3 354 308 297 291 275 259 255 257 271 280 224 182 186 220 146 176 236 237 261 263 251 259 268 276 280 275 287 290 297 289 274 276 276 278 285 297 327
264 275 279 278 303 322 333 351 336 334 269 285 276 272 284 290 240 262 221 221 203 197 209 246 267 260 219 240 259 249 264 275 284 307 277 293 281 269 280 271 284 289 291 311 76
255 262 272 289 309 302 326 356 0 344 272 254 203 333 267 163 105 313 200 200 195 276 231 256 295 236 214 241 246 277 263 267 282 299 291 355 295 298 264 274 322 39 65 95 68
259 263 274 279 251 276 274 346 1 341 291 57 94 128 94 80 132 38 169 175 262 255 219 282 230 185 224 241 220 261 1 302 295 276 297 258 260 314 252 271 60 67 92 74 39
269 271 272 270 261 255 266 298 340 221 246 193 170 176 142 80 93 96 87 62 300 275 248 268 263 247 253 187 216 234 297 278 202 264 261 261 216 325 356 122 62 68 71 43 45
242 245 258 255 252 228 224 209 242 227 356 201 212 202 153 158 147 156 132 154 292 319 294 307 286 222 227 247 154 224 305 308 271 222 271 108 284 268 277 354 60 87 62 56 49
247 257 246 228 230 211 192 151 222 196 254 336 209 185 258 188 253 227 275 257 229 217 283 287 301 200 164 228 215 173 176 203 271 283 293 313 255 259 243 92 78 55 46 39 35
248 251 247 232 224 206 186 231 248 209 198 217 224 256 253 229 252 150 234 276 310 202 214 238 251 350 227 181 206 104 207 234 245 273 276 260 261 242 102 85 61 54 42 34 26
253 254 254 242 223 191 208 239 236 244 191 255 265 246 267 259 234 221 268 143 209 199 347 254 270 239 214 193 216 210 206 223 239 246 244 261 264 265 182 74 53 49 30 18 15
247 232 227 206 180 174 217 229 255 252 251 248 255 259 268 279 257 265 250 250 219 199 166 175 219 283 184 229 260 206 213 212 122 225 257 274 274 76 58 111 60 33 15 8 9
202 168 180 161 164 198 219 198 229 266 260 262 286 255 259 280 273 265 255 233 112 140 255 208 244 258 265 271 258 270 252 215 228 232 231 248 249 324 113 111 76 45 15 9 8
178 140 164 177 201 210 229 218 228 207 233 224 241 231 243 263 269 254 258 121 40 0 327 46 282 270 249 246 328 256 261 253 262 273 253 258 256 109 137 133 74 77 50 2 9
165 146 177 206 224 228 226 249 232 224 239 234 237 238 251 257 250 271 278 303 36 51 349 5 210 239 285 298 301 268 313 317 283 281 328 293 311 307 306 309 14 127 288 288 335
185 198 171 186 225 220 218 187 195 211 257 245 227 232 242 231 238 248 276 307 99 15 40 237 260 272 277 283 285 274 274 275 266 274 265 283 278 276 291 336 29 40 287 255 271
167 163 174 136 73 198 214 236 243 244 253 244 253 264 298 247 252 285 299 266 272 43 319 128 271 289 272 275 264 267 271 269 273 271 265 263 268 295 352 312 285 297 311 289 303
186 167 141 145 167 181 208 220 186 163 143 143 135 155 208 254 186 195 244 264 260 247 249 263 267 268 271 283 311 272 249 266 273 272 269 269 300 90 302 301 312 314 317 307 308